Weather History for State College, PA

Change the Weather History Date:

Thursday, September 11, 2014

  Actual Average Record
Temperature  
Mean Temperature 68 °F -  
Max Temperature 77 °F 75 °F 94 °F (1964)
Min Temperature 59 °F 52 °F 39 °F (1932)
Cooling Degree Days 3    
Growing Degree Days 18 (Base 50)    
Moisture  
Dew Point 61 °F    
Average Humidity 81    
Maximum Humidity 90    
Minimum Humidity 61    
Precipitation  
Precipitation 0.00 in - - ()
Sea Level Pressure  
Sea Level Pressure 29.93 in    
Wind  
Wind Speed 8 mph (WSW)    
Max Wind Speed 14 mph    
Max Gust Speed 20 mph    
Visibility 10 miles    
Events Rain    
Averages and records for this station are not official NWS values.
T = Trace of Precipitation, MM = Missing Value Source: NWS Daily Summary

Daily Weather History Graph

Daily Weather History Graph

Search for Another Location

Airport:

Trip Planner

Search our weather history database for the weather conditions in past years. The results will help you decide how hot, cold, wet, or windy it might be!

Date:

Astronomy

Sep. 11, 2014 Rise Set
Actual Time 6:48 AM EDT 7:27 PM EDT
Civil Twilight 6:20 AM EDT 7:54 PM EDT
Nautical Twilight 5:47 AM EDT 8:27 PM EDT
Astronomical Twilight 5:13 AM EDT 9:01 PM EDT
Moon 9:02 PM EDT (9/11) 9:43 AM EDT (9/11)
Length of Visible Light 13h 34m
Length of Day
12h 39m
Waning Gibbous, 91% of the Moon is Illuminated
Sep 11
Waning Gibbous
Sep 15
Last Quarter
Sep 24
New
Oct 1
First Quarter
Oct 8
Full

Hourly Weather History & Observations

Time (EDT) Temp. Dew Point Humidity Pressure Visibility Wind Dir Wind Speed Gust Speed Precip Events Conditions
12:15 AM 68.0 °F 64.4 °F 88% 29.94 in 10.0 mi SSW 8.1 mph - N/A Rain Light Rain
12:35 AM 67.6 °F 64.4 °F 89% 29.92 in 10.0 mi South 6.9 mph - N/A Rain Light Rain
12:55 AM 68.0 °F 64.6 °F 89% 29.92 in 10.0 mi Calm Calm - N/A   Mostly Cloudy
1:15 AM 67.8 °F 64.6 °F 89% 29.91 in 10.0 mi South 5.8 mph - N/A Rain Light Rain
1:35 AM 68.0 °F 64.6 °F 89% 29.92 in 10.0 mi SSW 6.9 mph - N/A   Overcast
1:55 AM 68.2 °F 64.6 °F 88% 29.90 in 10.0 mi SSW 8.1 mph - N/A   Overcast
2:15 AM 68.2 °F 64.6 °F 88% 29.90 in 10.0 mi SSW 6.9 mph - N/A Rain Light Rain
2:35 AM 67.8 °F 64.8 °F 90% 29.89 in 10.0 mi South 6.9 mph - N/A Rain Light Rain
2:55 AM 68.2 °F 64.6 °F 88% 29.88 in 10.0 mi SSW 10.4 mph 17.3 mph N/A   Overcast
3:15 AM 68.2 °F 64.6 °F 88% 29.87 in 10.0 mi South 8.1 mph - N/A   Overcast
3:35 AM 68.4 °F 64.4 °F 87% 29.87 in 10.0 mi SSW 6.9 mph - N/A   Overcast
3:55 AM 68.4 °F 64.4 °F 87% 29.86 in 10.0 mi SSW 9.2 mph 16.1 mph N/A   Mostly Cloudy
4:15 AM 68.4 °F 64.4 °F 87% 29.85 in 10.0 mi South 6.9 mph - N/A   Overcast
4:35 AM 68.4 °F 64.4 °F 87% 29.84 in 10.0 mi South 8.1 mph - N/A   Overcast
4:55 AM 68.4 °F 64.4 °F 87% 29.84 in 10.0 mi SSW 5.8 mph - N/A   Mostly Cloudy
5:15 AM 68.4 °F 64.4 °F 87% 29.84 in 10.0 mi SSW 6.9 mph - N/A   Scattered Clouds
5:35 AM 68.0 °F 64.4 °F 88% 29.84 in 10.0 mi SSW 8.1 mph - N/A   Light Drizzle
5:53 AM 68.0 °F 64.4 °F 88% 29.84 in 10.0 mi SW 5.8 mph - N/A   Overcast
6:53 AM 68.0 °F 64.4 °F 88% 29.84 in 10.0 mi SW 6.9 mph - N/A   Overcast
7:53 AM 68.0 °F 64.4 °F 88% 29.84 in 10.0 mi WSW 6.9 mph - N/A   Overcast
8:53 AM 68.0 °F 64.4 °F 88% 29.85 in 10.0 mi SW 6.9 mph - N/A   Overcast
9:53 AM 69.8 °F 66.2 °F 88% 29.86 in 10.0 mi SW 6.9 mph - N/A   Overcast
11:53 AM 73.4 °F 68.0 °F 83% 29.89 in 10.0 mi WSW 9.2 mph - N/A   Overcast
12:53 PM 77.0 °F 66.2 °F 69% 29.90 in 10.0 mi WNW 13.8 mph - N/A   Mostly Cloudy
1:53 PM 77.0 °F 64.4 °F 65% 29.91 in 10.0 mi WNW 13.8 mph - N/A   Scattered Clouds
2:53 PM 77.0 °F 62.6 °F 61% 29.92 in 10.0 mi WNW 13.8 mph - N/A   Scattered Clouds
3:53 PM 73.4 °F 60.8 °F 65% 29.93 in 10.0 mi WNW 13.8 mph 19.6 mph N/A   Scattered Clouds
4:53 PM 73.4 °F 60.8 °F 65% 29.95 in 10.0 mi West 9.2 mph - N/A   Scattered Clouds
5:53 PM 69.8 °F 59.0 °F 68% 29.98 in 10.0 mi WNW 10.4 mph - N/A   Scattered Clouds
6:53 PM 68.0 °F 57.2 °F 68% 30.00 in 10.0 mi NW 8.1 mph - N/A   Scattered Clouds
7:53 PM 64.4 °F 55.4 °F 73% 30.03 in 10.0 mi NNW 8.1 mph - N/A   Scattered Clouds
8:53 PM 62.6 °F 53.6 °F 72% 30.05 in 10.0 mi NW 5.8 mph - N/A   Scattered Clouds
9:55 PM 61.2 °F 53.8 °F 77% 30.07 in 10.0 mi WNW 4.6 mph - N/A   Clear
10:15 PM 61.7 °F 53.6 °F 75% 30.07 in 10.0 mi NW 6.9 mph - N/A   Scattered Clouds
10:35 PM 61.5 °F 53.8 °F 76% 30.07 in 10.0 mi NW 9.2 mph - N/A   Scattered Clouds
10:55 PM 61.0 °F 52.7 °F 74% 30.08 in 10.0 mi NNW 10.4 mph - N/A   Clear
11:15 PM 60.4 °F 52.3 °F 75% 30.09 in 10.0 mi NNW 8.1 mph - N/A   Scattered Clouds
11:35 PM 59.9 °F 51.4 °F 74% 30.09 in 10.0 mi NNW 6.9 mph - N/A   Mostly Cloudy
11:55 PM 59.2 °F 51.1 °F 74% 30.10 in 10.0 mi NNW 6.9 mph - N/A   Scattered Clouds